DateTimeUTC,F1_A11,F1_S11,BsB_S11,BsG_S11,BsR_S11,BbsB_S11,BbsG_S11,BbsR_S11,BaB_A11,BaG_A11,BaR_A11,Tu_S11,T_S11,Uu_S11,U_S11,P_S11,T1_A11
2021-04-15T07:00:00Z,00000200,21000000,,,,,,,0000.16,-000.28,0000.12,16.5,24.2,,00.0,0647.3,30.9
2021-04-15T07:01:00Z,00000200,21000000,,,,,,,0000.01,0000.04,0000.25,16.4,24.2,,00.0,0647.3,30.9
2021-04-15T07:02:00Z,00000200,21000000,,,,,,,0000.17,0000.51,-000.06,16.4,24.2,,00.0,0647.3,30.9
2021-04-15T07:03:00Z,00000200,61000000,,,,,,,0000.85,0000.23,0000.51,16.4,24.2,,00.0,0647.3,30.9
2021-04-15T07:04:00Z,00000200,41000000,0001.43,0000.73,0000.39,0000.57,0000.22,0000.24,0000.48,0000.91,0000.32,16.3,23.8,,00.0,0648.1,30.9
2021-04-15T07:05:00Z,00000200,01000000,0001.08,0000.72,0000.32,-000.11,-000.04,0000.14,0000.13,0000.01,0000.30,16.3,23.7,,00.0,0648.2,30.9
2021-04-15T07:06:00Z,00000200,01000000,0000.93,0000.54,0000.30,-000.11,0000.17,-000.19,0000.86,0000.74,0000.65,16.3,23.7,,00.0,0648.2,30.9
2021-04-15T07:07:00Z,00000200,01000000,0001.32,0000.60,0000.09,0000.31,0000.25,-000.05,0000.93,0000.59,0000.31,16.3,23.7,,00.0,0648.2,30.9
2021-04-15T07:08:00Z,00000200,01000000,0000.90,0000.79,0000.60,-000.01,0000.26,0000.19,0000.31,0000.25,0000.09,16.4,23.7,,00.0,0648.2,30.9
2021-04-15T07:09:00Z,00000200,01000000,0000.84,0000.75,-000.02,0000.79,0000.12,-000.19,0000.26,0000.46,0000.65,16.5,23.7,,00.0,0648.2,30.9
2021-04-15T07:10:00Z,00000200,01000000,0001.61,0000.49,0000.33,0000.91,0000.04,-000.12,0000.48,0000.52,0000.21,16.5,23.7,,00.0,0648.2,31.0
2021-04-15T07:11:00Z,00000200,01000000,0001.15,0000.62,0000.12,0000.02,-000.13,-000.08,0000.25,0000.38,0000.12,16.6,23.8,,00.0,0648.2,31.0
2021-04-15T07:12:00Z,00000200,01000000,0001.25,0000.61,0000.19,0000.29,-000.03,-000.30,0000.55,0000.47,0000.12,16.7,23.8,,00.0,0648.2,31.0
2021-04-15T07:13:00Z,00000200,01000000,0000.49,0000.44,0000.06,-000.01,0000.20,-000.06,-000.06,0000.16,0000.78,16.8,23.8,,00.0,0648.2,31.0
2021-04-15T07:14:00Z,00000200,01000000,0001.07,0000.49,0000.36,0000.33,0000.26,0000.12,0000.57,0000.22,-000.09,16.8,23.8,,00.0,0648.2,31.0
2021-04-15T07:15:00Z,00000200,01000000,0001.20,0000.42,0000.13,0000.03,-000.12,-000.11,0000.08,0000.27,0000.30,16.8,23.8,,00.0,0648.2,31.0
2021-04-15T07:16:00Z,00000200,01000000,0001.32,0000.95,0000.57,0000.11,0000.15,0000.08,0001.17,0000.38,0000.30,16.7,23.8,,00.0,0648.1,31.0
2021-04-15T07:17:00Z,00000200,01000000,0000.86,0000.69,0000.43,-000.25,0000.01,0000.09,0000.57,0000.52,-000.17,16.7,23.8,,00.0,0648.1,30.9
2021-04-15T07:18:00Z,00000200,01000000,0001.27,0000.56,0000.20,0000.37,0000.17,-000.07,0000.03,0000.23,0000.41,16.6,23.8,,00.0,0648.1,30.9
2021-04-15T07:19:00Z,00000200,01000000,0000.62,0000.26,0000.48,0000.49,0000.11,0000.01,0000.31,0000.38,0000.38,16.5,23.7,,00.0,0648.1,30.9
2021-04-15T07:20:00Z,00000200,01000000,0001.47,0000.54,0000.55,0000.16,-000.12,0000.04,0000.37,0000.18,0000.04,16.5,23.7,,00.0,0648.1,30.9
2021-04-15T07:21:00Z,00000200,01000000,0001.06,0000.87,0000.57,0000.06,0000.03,0000.08,0000.92,0000.84,0000.72,16.4,23.7,,00.0,0648.1,30.9
2021-04-15T07:22:00Z,00000200,01000000,0001.23,0000.57,0000.18,0000.31,0000.12,-000.16,0000.37,0000.63,0000.03,16.5,23.6,,00.0,0648.1,30.9
2021-04-15T07:23:00Z,00000200,01000000,0000.72,0000.76,0000.10,0000.14,0000.03,0000.05,-000.12,0000.33,0000.41,16.5,23.7,,00.0,0648.1,30.9
2021-04-15T07:24:00Z,00000200,01000000,0000.69,0000.57,0000.36,0000.05,-000.02,0000.04,0000.82,0000.39,0000.21,16.6,23.7,,00.0,0648.1,31.0
2021-04-15T07:25:00Z,00000200,01000000,0001.25,0000.63,0000.34,0000.26,-000.05,-000.18,0000.12,-000.20,0000.33,16.7,23.7,,00.0,0648.1,31.0
2021-04-15T07:26:00Z,00000200,01000000,0000.66,0000.40,0000.29,0000.02,0000.09,0000.26,0000.85,0001.08,0001.06,16.8,23.8,,00.0,0648.1,31.0
2021-04-15T07:27:00Z,00000200,01000000,0001.15,0000.68,-000.04,-000.03,0000.10,-000.19,0000.21,-000.20,-000.25,16.8,23.8,,00.0,0648.1,31.0
2021-04-15T07:28:00Z,00000200,01000000,0001.04,0000.52,0000.31,0000.02,0000.12,0000.21,0000.11,0000.76,0000.21,16.9,23.8,,00.0,0648.1,31.0
2021-04-15T07:29:00Z,00000200,01000000,0001.28,0000.65,0000.36,0000.29,-000.02,0000.31,0000.05,-000.32,0000.25,16.9,23.9,,00.0,0648.1,31.0
2021-04-15T07:30:00Z,00000200,01000000,0001.48,0000.72,0000.43,0000.25,0000.01,0000.17,0000.70,0000.42,-000.14,16.9,23.9,,00.0,0648.1,31.0
2021-04-15T07:31:00Z,00000200,01000000,0000.74,0000.69,0000.08,0000.44,-000.22,0000.05,0000.29,0000.11,0000.31,16.9,23.9,,00.0,0648.1,31.0
2021-04-15T07:32:00Z,00000200,01000000,0000.94,0000.43,0000.33,0000.56,0000.07,-000.03,0000.42,0000.75,0000.60,16.8,23.8,,00.0,0648.0,31.0
2021-04-15T07:33:00Z,00000200,01000000,0000.60,0000.76,0000.24,0000.68,0000.06,-000.01,0001.19,0000.86,0000.29,16.7,23.8,,00.0,0648.0,30.9
2021-04-15T07:34:00Z,00000200,01000000,0001.29,0000.66,0000.11,0000.24,-000.04,-000.16,-000.08,-000.03,0000.22,16.6,23.8,,00.0,0648.0,30.9
2021-04-15T07:35:00Z,00000200,01000000,0000.75,0000.46,0000.35,-000.07,-000.08,0000.18,0001.54,0001.31,0000.64,16.6,23.7,,00.0,0648.0,30.9
2021-04-15T07:36:00Z,00000200,01000000,0001.02,0000.58,0000.10,0000.10,-000.08,-000.31,-000.73,-000.32,0000.08,16.6,23.7,,00.0,0648.0,30.9
2021-04-15T07:37:00Z,00000200,01000000,0000.81,0000.44,0000.16,-000.02,0000.15,-000.14,0000.15,0000.36,0000.41,16.6,23.7,,00.0,0648.0,30.9
2021-04-15T07:38:00Z,00000200,01000000,0000.83,0000.48,0000.36,0000.08,0000.13,0000.15,0001.11,0000.86,0000.39,16.6,23.7,,00.0,0648.0,30.9
2021-04-15T07:39:00Z,00000200,01000000,0001.05,0000.52,0000.24,0000.12,0000.18,0000.13,-000.03,-000.29,-000.09,16.7,23.7,,00.0,0648.0,31.0
2021-04-15T07:40:00Z,00000200,01000000,0001.13,0000.48,0000.30,-000.06,-000.11,0000.14,-000.03,-000.06,0000.36,16.8,23.8,,00.0,0648.0,31.0
2021-04-15T07:41:00Z,00000200,01000000,0000.33,0000.50,0000.24,0000.46,0000.04,0000.09,0000.32,0000.68,-000.10,16.9,23.8,,00.0,0648.0,31.0
2021-04-15T07:42:00Z,00000200,01000000,0000.52,0000.44,0000.38,0000.09,-000.24,-000.05,0000.02,-000.09,0000.26,16.9,23.8,,00.0,0648.1,31.0
2021-04-15T07:43:00Z,00000200,01000000,0000.99,0000.59,0000.13,-000.06,-000.07,0000.14,0000.23,0000.07,-000.03,17.0,23.9,,00.0,0648.0,31.0
2021-04-15T07:44:00Z,00000200,01000000,0000.83,0000.83,0000.23,0000.12,0000.10,-000.01,0000.23,0000.29,0000.23,17.0,23.9,,00.0,0648.0,31.0
2021-04-15T07:45:00Z,00000200,01000000,0001.03,0000.71,0000.23,0000.50,0000.12,-000.38,0000.44,0000.57,0000.27,16.9,23.8,,00.0,0648.0,31.0
2021-04-15T07:46:00Z,00000200,01000000,0000.71,0000.34,0000.16,-000.08,0000.12,0000.20,0000.39,0000.33,0000.12,16.8,23.8,,00.0,0648.0,31.0
2021-04-15T07:47:00Z,00000200,01000000,0000.71,0000.49,0000.33,0000.17,0000.21,0000.13,0000.28,-000.04,0000.42,16.8,23.8,,00.0,0648.0,31.0
2021-04-15T07:48:00Z,00000200,01000000,0000.83,0000.54,0000.28,0000.40,-000.01,0000.13,0001.35,0001.18,0000.84,16.7,23.8,,00.0,0648.0,30.9
2021-04-15T07:49:00Z,00000200,01000000,0001.49,0000.53,0000.42,-000.28,0000.03,0000.16,-000.30,-000.76,-000.23,16.6,23.8,,00.0,0648.0,30.9
2021-04-15T07:50:00Z,00000200,01000000,0000.18,0000.62,0000.27,0000.01,0000.07,0000.28,0000.13,0000.75,-000.03,16.6,23.7,,00.0,0648.0,30.9
2021-04-15T07:51:00Z,00000200,01000000,0000.85,0000.56,-000.07,-000.05,-000.24,-000.21,0000.10,0000.50,0000.46,16.6,23.7,,00.0,0648.0,30.9
2021-04-15T07:52:00Z,00000200,01000000,0000.92,0000.65,0000.14,0000.26,0000.08,-000.06,0000.89,0000.89,0000.32,16.6,23.7,,00.0,0648.0,30.9
2021-04-15T07:53:00Z,00000200,01000000,0000.90,0000.71,0000.23,0000.12,0000.02,0000.09,0000.73,0000.05,0000.43,16.6,23.7,,00.0,0648.0,31.0
2021-04-15T07:54:00Z,00000200,01000000,0001.09,0000.28,0000.39,0000.35,0000.05,0000.26,0000.10,0000.79,0000.31,16.7,23.7,,00.0,0648.0,31.0
2021-04-15T07:55:00Z,00000200,01000000,0001.94,0000.58,-000.08,0000.09,-000.04,-000.03,0000.43,0000.41,0000.56,16.8,23.7,,00.0,0648.0,31.0
2021-04-15T07:56:00Z,00000200,01000000,0000.40,0000.53,0000.37,0000.46,-000.10,0000.06,0000.54,0000.64,0000.57,16.9,23.8,,00.0,0648.0,31.0
2021-04-15T07:57:00Z,00000200,41000000,,,,,,,-000.82,-000.96,-001.10,16.9,23.9,,00.0,0648.0,31.0
2021-04-15T07:58:00Z,00000200,61000000,,,,,,,0000.23,0000.20,0000.43,16.7,24.0,,00.0,0647.0,31.0
2021-04-15T07:59:00Z,00000200,21000000,,,,,,,0000.06,-000.01,-000.05,16.7,24.1,,00.0,0647.0,31.0
